User: anonymous   Login
Location: Albany
(35.0000°S, 118.0000°E)
Time: 03:45:16
(UTC-05:00)
Language:

Transit 2A - Orbit

View from above orbital plane
View from above orbital plane
View from above satellite
View from above satellite

Ground track
Ground track

The orbit data is extracted from the following two-line orbital elements,

1    45U 60007A   16040.92129720 +.00000089 +00000-0 +49636-4 0  9994
2    45 066.6930 249.1554 0252458 031.0653 330.5097 14.33455799838034
Epoch (UTC): 09 February 2016 22:06:40
Eccentricity: 0.0252458
inclination: 66.6930°
perigee height: 599 km
apogee height: 961 km
right ascension of ascending node: 249.1554°
argument of perigee: 31.0653°
revolutions per day: 14.33455799
mean anomaly at epoch: 330.5097°
orbit number at epoch: 83803

The dashed part of the orbit path shows where the satellite is in the earth's shadow,  

DLR